FW8732 Weather Reports


time (UTC)temp
F
wind
direction
speed
knots
gust
knots
rain 1hr
in
rain 24hr
in
rain mn
in
humidity
%
barometer
mb
20260504044554 38 146 9.6 16.5 0.01 0.64 0.01 97 974.5
20260504043111 38 123 9.6 18.2 0.01 0.64 0.01 97 975.5
20260504041554 38 130 12.2 18.2 0.01 0.64 0.01 96 975.8
20260504040058 38 123 7.8 13.9 0.00 0.63 0.00 96 977.3
20260504034556 38 125 8.7 19.1 0.00 0.63 0.00 96 978.3
20260504033104 39 120 13.9 25.2 0.00 0.63 0.00 95 978.6
20260504031558 39 157 7.8 15.6 0.00 0.63 0.00 95 979.5
20260504030115 40 129 7.0 11.3 0.00 0.63 0.00 95 980.5
20260504024555 40 120 7.0 15.6 0.00 0.63 0.63 95 981.0
20260504023058 40 157 7.8 17.4 0.01 0.63 0.63 96 981.6
20260504021557 41 146 9.6 17.4 0.02 0.63 0.63 98 982.3
20260504020105 41 142 7.8 18.2 0.03 0.63 0.63 99 982.5
20260504014604 41 102 6.1 12.2 0.05 0.63 0.63 99 983.6
20260504013056 39 88 6.1 11.3 0.06 0.62 0.62 99 984.1
20260504011552 38 14 7.0 13.0 0.07 0.61 0.61 98 984.8
20260504010058 38 31 7.8 18.2 0.08 0.60 0.60 98 985.5
20260504004552 37 81 9.6 20.9 0.08 0.58 0.58 98 986.4
20260504003054 37 37 8.7 19.1 0.11 0.56 0.56 98 987.3
20260504001558 37 17 9.6 21.7 0.14 0.54 0.54 98 988.1
20260504000059 37 2 9.6 20.9 0.15 0.52 0.52 98 988.8
20260503234552 37 31 12.2 24.3 0.16 0.50 0.50 98 988.9
20260503233054 36 45 12.2 20.0 0.13 0.45 0.45 98 989.6
20260503231556 36 14 10.4 20.9 0.11 0.40 0.40 98 990.8
20260503230110 37 4 8.7 20.0 0.11 0.37 0.37 98 992.0
20260503224551 37 43 8.7 18.2 0.11 0.34 0.34 98 993.0
20260503223109 36 37 9.6 20.0 0.13 0.32 0.32 98 993.8
20260503221554 36 46 7.0 16.5 0.15 0.29 0.29 98 994.8
20260503220055 36 51 7.8 15.6 0.17 0.26 0.26 98 995.0
20260503214557 36 28 7.0 16.5 0.16 0.22 0.22 97 995.9
20260503213055 35 34 7.8 15.6 0.13 0.19 0.19 97 996.2
20260503211551 35 12 9.6 18.2 0.08 0.14 0.14 97 995.3
20260503210054 35 114 9.6 18.2 0.03 0.09 0.09 97 997.1
20260503204554 35 35 7.8 18.2 0.01 0.06 0.06 97 997.9
20260503203051 35 23 7.0 16.5 0.02 0.06 0.06 96 998.6
20260503201553 34 81 7.0 18.2 0.02 0.06 0.06 96 999.6
20260503200055 35 52 9.6 16.5 0.03 0.06 0.06 95 999.8
20260503194616 36 27 7.0 17.4 0.04 0.05 0.05 95 1000.1
20260503193053 37 20 11.3 18.2 0.04 0.04 0.04 94 1000.7
20260503191557 38 10 6.1 13.9 0.04 0.04 0.04 94 1002.3
20260503190051 38 339 10.4 16.5 0.03 0.03 0.03 93 1002.5
20260503184553 39 65 6.1 11.3 0.01 0.01 0.01 92 1004.3
20260503183057 39 39 5.2 11.3 0.00 0.00 0.00 90 1004.9
20260503181559 39 27 7.0 12.2 0.00 0.00 0.00 89 1005.3
20260503180054 39 13 7.0 12.2 0.00 0.00 0.00 90 1006.2
20260503174558 39 65 5.2 11.3 0.00 0.00 0.00 90 1007.1
20260503173053 39 49 4.3 11.3 0.00 0.00 0.00 89 1007.8
20260503171555 40 29 4.3 12.2 0.00 0.00 0.00 88 1008.1
20260503170104 41 53 4.3 13.0 0.00 0.00 0.00 86 1008.1
20260503120107 46 25 3.5 7.8 0.00 0.00 0.00 91 1013.3
20260503081558 34 0 0.0 1.7 0.00 0.00 0.00 98 1015.2
20260503071554 34 254 1.7 4.3 0.00 0.02 0.00 98 1015.6